Aitkin, MN

6:19 PM CST on February 19, 2018 (GMT -0600)
Aitkin Municipal / Steve Kurtz Field

Weather History for KAIT - September, 2013

Change the Weather History Date:

Wednesday, September 4, 2013

  Actual Average Record
Temperature  
Mean Temperature 64 °F -  
Max Temperature 77 °F 73 °F 91 °F (1978)
Min Temperature 51 °F 49 °F 33 °F (1974)
Degree Days  
Heating Degree Days 1    
Growing Degree Days 14 (Base 50)    
Moisture  
Dew Point 57 °F    
Average Humidity 70    
Maximum Humidity 83    
Minimum Humidity 44    
Precipitation  
Precipitation 0.00 in - - ()
Sea Level Pressure  
Sea Level Pressure 30.11 in    
Wind  
Wind Speed 3 mph (North)    
Max Wind Speed 9 mph    
Max Gust Speed -    
Visibility 10 miles    
Events      
Averages and records for this station are not official NWS values.
T = Trace of Precipitation, MM = Missing Value Source: NWS Daily Summary

Daily Weather History Graph

Daily Weather History Graph

Search for Another Location

Airport or City:

Trip Planner

Search our weather history database for the weather conditions in past years. The results will help you decide how hot, cold, wet, or windy it might be!

Date:

Astronomy

Sep. 04, 2013 Rise Set
Actual Time 6:38 AM CDT 7:47 PM CDT
Civil Twilight 6:07 AM CDT 8:18 PM CDT
Nautical Twilight 5:30 AM CDT 8:55 PM CDT
Astronomical Twilight 4:51 AM CDT 9:34 PM CDT
Moon 5:52 AM CDT (9/4) 7:05 PM CDT (9/4)
Length of Visible Light 14h 10m
Length of Day
13h 08m
Waning Crescent, 1% of the Moon is Illuminated
Sep 4
Waning Crescent
Sep 5
New
Sep 12
First Quarter
Sep 19
Full
Sep 26
Last Quarter

Hourly Weather History & Observations

Time (CDT) Temp. Dew Point Humidity Pressure Visibility Wind Dir Wind Speed Gust Speed Precip Events Conditions
12:12 AM 66.2 °F 59.0 °F 78% 29.99 in 10.0 mi WSW 4.6 mph - N/A   Clear
12:32 AM 66.2 °F 59.0 °F 78% 29.99 in 10.0 mi WSW 4.6 mph - N/A   Clear
12:51 AM 66.2 °F 59.0 °F 78% 30.00 in 10.0 mi WSW 3.5 mph - N/A   Clear
1:13 AM 66.2 °F 59.0 °F 78% 29.99 in 10.0 mi SW 4.6 mph - N/A   Clear
1:24 AM 66.2 °F 59.0 °F 78% 30.00 in 10.0 mi WSW 4.6 mph - N/A   Clear
2:13 AM 64.4 °F 57.2 °F 77% 30.01 in 10.0 mi Calm Calm - N/A   Unknown
2:33 AM 64.4 °F 59.0 °F 83% 30.02 in 10.0 mi Calm Calm - N/A   Clear
2:52 AM 66.2 °F 59.0 °F 78% 30.02 in 10.0 mi Calm Calm - N/A   Clear
3:13 AM 64.4 °F 57.2 °F 77% 30.02 in 10.0 mi Calm Calm - N/A   Clear
3:33 AM 64.4 °F 57.2 °F 77% 30.02 in 10.0 mi Calm Calm - N/A   Clear
3:52 AM 64.4 °F 57.2 °F 77% 30.03 in 10.0 mi Calm Calm - N/A   Clear
4:13 AM 64.4 °F 57.2 °F 77% 30.03 in 10.0 mi Calm Calm - N/A   Clear
4:33 AM 64.4 °F 57.2 °F 77% 30.04 in 10.0 mi NNW 3.5 mph - N/A   Clear
4:52 AM 64.4 °F 57.2 °F 77% 30.04 in 10.0 mi Calm Calm - N/A   Clear
5:13 AM 64.4 °F 57.2 °F 77% 30.05 in 10.0 mi NNW 4.6 mph - N/A   Clear
5:33 AM 64.4 °F 57.2 °F 77% 30.06 in 10.0 mi Calm Calm - N/A   Clear
5:52 AM 64.4 °F 57.2 °F 77% 30.06 in 10.0 mi NNW 3.5 mph - N/A   Clear
6:13 AM 64.4 °F 57.2 °F 77% 30.07 in 10.0 mi Calm Calm - N/A   Clear
6:33 AM 62.6 °F 57.2 °F 82% 30.08 in 10.0 mi Calm Calm - N/A   Clear
6:52 AM 62.6 °F 57.2 °F 82% 30.09 in 10.0 mi North 3.5 mph - N/A   Clear
7:13 AM 62.6 °F 57.2 °F 82% 30.10 in 10.0 mi Calm Calm - N/A   Clear
7:33 AM 62.6 °F 57.2 °F 82% 30.10 in 10.0 mi North 3.5 mph - N/A   Clear
7:52 AM 62.6 °F 57.2 °F 82% 30.11 in 10.0 mi Calm Calm - N/A   Clear
8:13 AM 64.4 °F 57.2 °F 77% 30.11 in 10.0 mi North 4.6 mph - N/A   Clear
8:33 AM 64.4 °F 57.2 °F 77% 30.12 in 10.0 mi NNE 3.5 mph - N/A   Clear
8:52 AM 64.4 °F 57.2 °F 77% 30.12 in 10.0 mi NNE 9.2 mph - N/A   Scattered Clouds
9:13 AM 64.4 °F 57.2 °F 77% 30.13 in 10.0 mi NNE 5.8 mph - N/A   Overcast
9:33 AM 66.2 °F 59.0 °F 78% 30.13 in 10.0 mi NE 6.9 mph - N/A   Overcast
9:52 AM 68.0 °F 60.8 °F 78% 30.13 in 10.0 mi NNE 6.9 mph - N/A   Mostly Cloudy
10:13 AM 69.8 °F 60.8 °F 73% 30.13 in 10.0 mi NE 6.9 mph - N/A   Scattered Clouds
10:33 AM 69.8 °F 60.8 °F 73% 30.14 in 10.0 mi NNE 5.8 mph - N/A   Clear
10:52 AM 71.6 °F 60.8 °F 69% 30.15 in 10.0 mi NE 5.8 mph - N/A   Clear
11:13 AM 71.6 °F 62.6 °F 73% 30.15 in 10.0 mi ENE 6.9 mph - N/A   Clear
11:33 AM 71.6 °F 60.8 °F 69% 30.16 in 10.0 mi NE 6.9 mph - N/A   Clear
11:52 AM 73.4 °F 60.8 °F 65% 30.15 in 10.0 mi NE 5.8 mph - N/A   Clear
12:11 PM 73.4 °F 60.8 °F 65% 30.15 in 10.0 mi North 5.8 mph - N/A   Scattered Clouds
12:21 PM 73.4 °F 60.8 °F 65% 30.15 in 10.0 mi North 6.9 mph - N/A   Clear
12:38 PM 73.4 °F 60.8 °F 65% 30.15 in 10.0 mi NE 3.5 mph - N/A   Clear
12:53 PM 73.4 °F 60.8 °F 65% 30.16 in 10.0 mi North 6.9 mph - N/A   Clear
1:13 PM 73.4 °F 60.8 °F 65% 30.16 in 10.0 mi North 3.5 mph - N/A   Scattered Clouds
1:32 PM 75.2 °F 59.0 °F 57% 30.15 in 10.0 mi North 3.5 mph - N/A   Scattered Clouds
1:53 PM 75.2 °F 57.2 °F 53% 30.15 in 10.0 mi ENE 3.5 mph - N/A   Clear
2:13 PM 75.2 °F 57.2 °F 53% 30.15 in 10.0 mi Calm Calm - N/A   Clear
2:32 PM 75.2 °F 57.2 °F 53% 30.14 in 10.0 mi Calm Calm - N/A   Clear
2:53 PM 75.2 °F 57.2 °F 53% 30.14 in 10.0 mi Calm Calm - N/A   Clear
3:13 PM 75.2 °F 57.2 °F 53% 30.14 in 10.0 mi Calm Calm - N/A   Clear
3:32 PM 75.2 °F 55.4 °F 50% 30.14 in 10.0 mi Calm Calm - N/A   Clear
3:53 PM 75.2 °F 55.4 °F 50% 30.13 in 10.0 mi NNW 3.5 mph - N/A   Clear
4:13 PM 75.2 °F 57.2 °F 53% 30.14 in 10.0 mi Calm Calm - N/A   Clear
4:32 PM 75.2 °F 55.4 °F 50% 30.13 in 10.0 mi Calm Calm - N/A   Clear
4:53 PM 77.0 °F 53.6 °F 44% 30.13 in 10.0 mi North 4.6 mph - N/A   Clear
5:13 PM 75.2 °F 51.8 °F 44% 30.13 in 10.0 mi Calm Calm - N/A   Clear
5:32 PM 75.2 °F 51.8 °F 44% 30.13 in 10.0 mi Calm Calm - N/A   Clear
5:53 PM 77.0 °F 53.6 °F 44% 30.14 in 10.0 mi Calm Calm - N/A   Clear
6:13 PM 75.2 °F 53.6 °F 47% 30.14 in 10.0 mi North 3.5 mph - N/A   Clear
6:32 PM 73.4 °F 55.4 °F 53% 30.14 in 10.0 mi North 3.5 mph - N/A   Clear
6:53 PM 69.8 °F 57.2 °F 64% 30.14 in 10.0 mi Calm Calm - N/A   Clear
7:13 PM 68.0 °F 59.0 °F 73% 30.14 in 10.0 mi Calm Calm - N/A   Clear
7:32 PM 66.2 °F 59.0 °F 78% 30.15 in 10.0 mi Calm Calm - N/A   Clear
7:53 PM 64.4 °F 57.2 °F 77% 30.15 in 10.0 mi Calm Calm - N/A   Clear
8:13 PM 64.4 °F 57.2 °F 77% 30.15 in 10.0 mi Calm Calm - N/A   Clear
8:32 PM 66.2 °F 53.6 °F 64% 30.16 in 10.0 mi North 4.6 mph - N/A   Clear
8:53 PM 64.4 °F 51.8 °F 64% 30.16 in 10.0 mi Calm Calm - N/A   Clear
9:13 PM 60.8 °F 51.8 °F 72% 30.17 in 10.0 mi Calm Calm - N/A   Clear
9:32 PM 57.2 °F 50.0 °F 77% 30.17 in 10.0 mi Calm Calm - N/A   Clear
9:53 PM 55.4 °F 50.0 °F 82% 30.18 in 10.0 mi Calm Calm - N/A   Clear
10:13 PM 55.4 °F 48.2 °F 77% 30.18 in 10.0 mi Calm Calm - N/A   Clear
10:32 PM 53.6 °F 48.2 °F 82% 30.18 in 10.0 mi Calm Calm - N/A   Clear
10:45 PM 53.6 °F 48.2 °F 82% 30.18 in 10.0 mi Calm Calm - N/A   Clear
11:01 PM 51.8 °F 46.4 °F 82% 30.18 in 10.0 mi Calm Calm - N/A   Clear
11:21 PM 51.8 °F 46.4 °F 82% 30.18 in 2.0 mi Calm Calm - N/A   Clear